Flag for Switzerland Weather past 2 weeks in Bellinzona, Ticino, Switzerland

Now
43 °F

Quite cool.


Feels Like: 43 °F
Forecast: 41 / 58 °F
Wind: 1 mph from East

Location: Locarno-Magadino

Current Time: Dec 21, 2014 at 6:17:33 PM

Latest Report: Dec 21, 2014 at 5:00 PM


Visibility: N/A

Pressure: 30.41 "Hg

Humidity: 69%

Dew point: 33 °F

Location of BellinzonaLocation

Historic Weather in Bellinzona — Graph

°F

Bellinzona temperature yesterday

Maximum temperature yesterday: 52 °F (at 1:00 PM)
Minimum temperature yesterday: 31 °F (at 5:00 AM)
Average temperature yesterday: 37 °F

Past Weeks' High & Low Weather Summary

 TemperatureHumidityPressure
High54 °F (Dec 21, 11:00 AM)100% (Dec 6, 8:00 PM)30.41 "Hg (Dec 6, 8:00 PM)
Low26 °F (Dec 12, 8:00 AM)24% (Dec 21, 11:00 AM)29.86 "Hg (Dec 16, 5:00 PM)
Average40 °F85%30.13 "Hg
* Reported Dec 6 5:00 PM — Dec 21 5:00 PM, Bellinzona, Weather by CustomWeather, © 2014

Note: Actual official high and low records may vary slightly from our data, if they occured in-between our weather recording intervals... More about our weather records

Advertising

Bellinzona weather history for previous 24 hours

 ConditionsComfort  
Time TempWeatherWind HumidityBarometerVisibility
5:00 PM
Dec 21
43 °FQuite cool.1 mph69%30.41 "HgN/A
4:00 PM46 °FCool.1 mph62%30.39 "HgN/A
3:00 PM49 °FCool.1 mph54%30.38 "HgN/A
2:00 PM52 °FCool.6 mph54%30.37 "HgN/A
1:00 PM53 °FCool.7 mph47%30.37 "HgN/A
12:00 PM54 °FCool.7 mph35%30.36 "HgN/A
11:00 AM54 °FCool.8 mph24%30.35 "HgN/A
10:00 AM50 °FCool.8 mph29%30.34 "HgN/A
9:00 AM43 °FQuite cool.3 mph47%30.34 "HgN/A
8:00 AM49 °FCool.3 mph32%30.30 "HgN/A
7:00 AM46 °FCool.2 mph40%30.29 "HgN/A
6:00 AM53 °FCool.7 mph27%30.26 "HgN/A
5:00 AM54 °FCool.13 mph27%30.25 "HgN/A
4:00 AM51 °FCool.5 mph32%30.24 "HgN/A
3:00 AM46 °FCool.3 mph45%30.25 "HgN/A
2:00 AM36 °FChilly.3 mph76%30.24 "HgN/A
1:00 AM32 °FChilly.2 mph90%30.25 "HgN/A
12:00 AM34 °FChilly.3 mph88%30.24 "HgN/A
11:00 PM
Dec 20
32 °FChilly.2 mph94%30.24 "HgN/A
9:00 PM31 °FChilly.1 mph96%30.23 "HgN/A
8:00 PM35 °FChilly.2 mph95%30.22 "HgN/A
7:00 PM35 °FChilly.1 mph93%30.22 "HgN/A
6:00 PM35 °FChilly.3 mph97%30.20 "HgN/A
Weather by CustomWeather, © 2014

See weather overviewHow to use our weather pages